Regional Weather Roundup
Issued by NWS Jackson, KY

Home | Current Version | Previous Version | Graphics & Text | Print | Product List | Glossary On
Versions: 1 2 3 4 5 6 7 8 9 10 11 12 13 14 15 16 17 18 19 20 21 22 23 24 25 26 27 28 29 30 31 32 33 34 35 36 37 38 39 40 41 42 43 44 45 46 47 48 49 50
000
ASUS43 KJKL 161110
RWRJKL

EAST KENTUCKY HOURLY WEATHER ROUNDUP
NATIONAL WEATHER SERVICE JACKSON KY
700 AM EDT TUE SEP 16 2014

NOTE: "FAIR" INDICATES FEW OR NO CLOUDS BELOW 12,000 FEET WITH
NO SIGNIFICANT WEATHER AND/OR OBSTRUCTIONS TO VISIBILITY.

* THESE REPORTS ARE NOT UNDER NWS QUALITY CONTROL AND MAY NOT
  REPORT WEATHER SUCH AS PRECIPITATION AND FOG.

KYZ079-080-083-085-087-088-110-112-115-119-120-161200
...EASTERN KENTUCKY...

CITY           SKY/WX    TMP DP  RH WIND       PRES   REMARKS
JACKSON        CLOUDY    62  60  93 CALM      30.11R
LONDON         CLOUDY    66  61  84 CALM      30.11S
MONTICELLO*    CLOUDY    67  64  90 W5        30.13R
WILLIAMSBURG*  CLOUDY    64  64 100 CALM      30.11S
MIDDLESBORO*   CLOUDY    63  63  98 CALM      30.11S
HARLAN APT*    CLOUDY    63  63 100 MISG      30.12S
HAZARD APT*    RAIN      63  63 100 CALM      30.11R
BLACK MTN*       N/A     57  57 100 S1          N/A
PIKEVILLE APT* CLOUDY    61  61 100 CALM      30.11S FOG
BIG SANDY*     DRIZZLE   61  61  99 CALM      30.11S
MOREHEAD APT*  CLOUDY    61  59  94 CALM      30.12S FOG
$$

KYZ035-036-041-042-044-050-067-078-099-161200
...CENTRAL KENTUCKY...

CITY           SKY/WX    TMP DP  RH WIND       PRES   REMARKS
MT STERLING*   LGT RAIN  61  61 100 CALM      30.12R
FLEMING/MASON* CLOUDY    57  57 100 NE5       30.13R FOG
DANVILLE*      CLOUDY    63  63 100 NW6       30.11R
RICHMOND*      CLOUDY    63  61  94 CALM      30.10R
LEXINGTON      CLOUDY    63  60  90 NE9       30.10R FOG
FRANKFORT      CLOUDY    60  59  96 NE6       30.10R FOG
$$

KYZ091>093-OHZ055-061-077-WVZ005-015-034-035-042-161200
...SOUTHERN OHIO/WEST VIRGINIA...

CITY           SKY/WX    TMP DP  RH WIND       PRES   REMARKS
COVINGTON      CLOUDY    58  55  90 N8        30.12R
COLUMBUS       PTCLDY    56  50  80 N7        30.12R
DAYTON         CLOUDY    53  51  93 N8        30.16R
WILMINGTON     CLOUDY    55  53  93 N6        30.13R
HUNTINGTON     CLOUDY    59  58  96 CALM      30.10R
PINEVILLE*     DRIZZLE   62  62 100 MISG      30.16S
BECKLEY        LGT RAIN  59  56  89 N3        30.13S
BLUEFIELD      CLOUDY    61  58  90 SW3       30.15S
$$

VAZ002-007-008-TNZ017-027-036-066-071-161200
...SOUTHWEST VIRGINIA/EAST TENNESSEE...

CITY           SKY/WX    TMP DP  RH WIND       PRES   REMARKS
WISE*          CLOUDY    63  63 100 W3        30.15S
JONESVILLE*    CLOUDY    64  64 100 CALM      30.14R FOG
ABINGDON*      CLOUDY    65  65 100 W3        30.13S FOG
BRISTOL        CLOUDY    66  63  90 CALM      30.11F
KNOXVILLE      CLOUDY    70  69  97 SW8       30.10R
OAK RIDGE      CLOUDY    70  68  93 VRB5      30.12R
CROSSVILLE     MOCLDY    67  61  81 SW3       30.15R
NASHVILLE      CLOUDY    67  64  90 CALM      30.11R
$$

...KEY TO REMARKS...
VSB - VISIBILITY IN MILES
WCI - WIND CHILL INDEX
HX  - HEAT INDEX

$$



USA.gov is the U.S. government's official web portal to all federal, state and local government web resources and services.